Temperature
11 11 11 11 11 11 12 12 12 12 12 12 13 13 13 13 14 14 14 14 14 14 15 15 15 15 15 15 15 15 15 15 15 15 15 15 15 15 15 15 15 15 14
11 11 11 11 11 11 11 11 12 12 12 12 12 13 13 13 13 13 14 14 14 14 14 14 14 15 15 15 15 15 15 15 15 15 15 15 15 15 14 14 14 14 14
11 11 11 11 11 11 11 11 11 11 12 12 12 12 12 12 13 13 13 13 13 14 14 14 14 14 14 14 14 15 15 14 14 14 14 14 14 14 14 14 14 14 14
11 11 11 11 11 11 11 11 11 11 11 12 12 12 12 12 12 12 13 13 13 13 13 14 14 14 14 14 14 14 14 14 14 14 14 14 14 14 14 13 13 13 13
11 11 11 11 10 10 10 10 10 11 11 11 11 11 12 12 12 12 12 12 13 13 13 13 13 13 14 14 14 14 14 14 14 14 14 14 13 13 13 13 13 13 12
12 11 11 11 10 10 10 10 10 10 10 10 11 11 11 11 11 12 12 12 12 12 12 13 13 13 13 13 13 14 14 14 14 14 14 14 13 13 13 13 13 12 12
12 11 11 11 10 10 10 10 10 10 10 10 10 10 10 11 11 11 11 12 12 12 12 12 12 12 13 13 13 13 13 13 14 14 14 14 14 14 13 13 13 13 12
12 11 11 10 10 10 10 10 10 10 10 10 10 10 10 10 10 11 11 11 11 11 12 12 12 12 12 13 13 13 13 13 13 14 14 14 14 13 13 13 13 12 12
12 11 11 10 10 10 10 10 10 10 9 9 9 10 10 10 10 10 11 11 11 11 11 11 12 12 12 12 13 13 13 13 13 13 13 13 13 13 13 13 12 12 12
12 11 11 11 10 10 10 10 10 9 9 9 9 9 9 10 10 10 10 10 11 11 11 11 11 12 12 12 13 13 13 13 13 13 13 13 13 13 13 13 13 13 12
12 11 11 11 10 10 10 10 10 10 9 9 9 9 9 9 10 10 10 10 10 11 11 11 11 12 12 12 12 13 13 13 13 13 13 13 13 13 13 13 13 13 13
12 12 11 11 11 10 10 10 10 10 10 9 9 9 9 9 9 10 10 10 10 11 11 11 11 11 12 12 12 12 13 13 13 13 13 13 13 13 13 12 12 12 12
12 12 12 11 11 11 11 10 10 10 10 10 10 10 9 9 10 10 10 10 10 10 11 11 11 11 12 12 12 12 12 13 13 13 13 13 13 13 13 12 12 12 11
13 12 12 12 11 11 11 11 10 10 10 10 10 10 10 10 10 10 10 10 10 10 11 11 11 11 12 12 12 12 12 12 13 13 13 12 12 12 12 12 12 11 11
13 13 12 12 12 11 11 11 11 10 10 10 10 10 10 10 10 10 10 10 10 11 11 11 11 11 11 12 12 12 12 12 12 12 12 12 12 12 12 11 11 11 11
14 13 13 13 12 12 11 11 11 11 11 10 10 10 10 10 10 10 10 10 10 10 11 11 11 11 11 12 12 12 12 12 12 12 12 12 12 12 12 11 11 11 11
14 14 13 13 13 12 12 12 11 11 11 11 11 10 10 10 10 10 10 10 10 10 11 11 11 11 11 11 12 12 12 12 12 12 12 12 11 11 11 11 11 11 10
15 14 14 13 13 13 12 12 12 11 11 11 11 11 11 10 10 10 10 10 10 10 11 11 11 11 11 11 11 12 12 12 11 11 11 11 11 11 11 11 11 10 10
15 15 14 14 13 13 12 12 12 12 12 11 11 11 11 11 11 11 10 10 10 10 10 11 11 11 11 11 11 12 12 11 11 11 11 11 11 11 11 10 10 10 10
16 15 14 14 13 13 13 12 12 12 12 12 12 11 11 11 11 11 11 11 11 11 11 11 11 11 11 11 11 11 11 11 11 11 11 11 11 11 10 10 10 10 9
16 15 15 14 14 13 13 13 13 12 12 12 12 12 12 11 11 11 11 11 11 11 11 11 11 11 11 11 11 11 11 11 11 11 11 11 10 10 10 10 10 9 9
16 15 15 15 14 14 13 13 13 13 13 12 12 12 12 12 12 11 11 11 11 11 11 11 11 11 11 11 11 11 11 11 11 11 11 10 10 10 10 10 9 9 9
16 16 15 15 14 14 14 13 13 13 13 13 12 12 12 12 12 12 12 11 11 11 11 11 11 11 11 11 11 11 11 11 11 10 10 10 10 10 10 9 9 9 9
16 15 15 15 14 14 14 13 13 13 13 13 13 12 12 12 12 12 12 12 11 11 12 12 12 11 11 11 11 11 11 11 10 10 10 10 10 10 9 9 9 9 9
16 15 15 15 15 14 14 13 13 13 13 13 13 13 13 12 12 12 12 12 12 11 12 12 12 12 12 12 11 11 11 11 11 10 10 10 10 9 9 9 9 9 8
16 16 15 15 15 14 14 14 13 13 13 13 13 13 13 13 12 12 12 12 12 11 11 11 12 12 12 12 12 12 11 11 11 11 10 10 10 10 9 9 9 8 8
Wind_Speed
6 5 6 7 7 7 7 8 8 8 8 8 7 7 7 7 6 4 2 1 1 3 3 5 7 7 7 7 6 5 5 5 4 3 2 3 4 6 7 9 10 11 11
4 5 6 6 7 8 8 8 8 8 8 8 7 8 8 8 7 6 5 3 1 1 2 3 5 6 7 6 6 6 6 5 4 5 3 3 3 5 7 6 7 9 9
3 5 6 6 7 7 7 8 8 8 8 8 8 8 8 7 7 7 6 5 4 2 1 2 3 5 5 5 6 6 5 5 4 5 4 3 3 4 6 6 7 6 9
3 4 5 5 6 6 6 7 7 7 7 8 7 7 7 7 7 7 6 6 5 4 3 2 2 3 5 6 6 6 6 6 5 6 5 4 4 4 6 7 7 5 6
3 4 4 4 5 6 6 6 7 7 7 6 7 7 7 6 7 7 5 5 5 5 5 4 3 3 5 5 5 6 7 6 6 6 5 4 4 6 6 5 8 8 6
3 2 2 4 5 5 6 6 6 6 6 6 6 7 7 7 10 10 6 4 4 4 4 4 3 4 4 4 6 8 9 8 7 6 4 6 6 6 6 9 9 8 5
2 1 2 3 4 5 5 6 6 5 5 6 6 6 7 8 12 11 9 4 4 3 3 3 3 4 4 3 5 6 6 8 9 7 7 6 7 7 9 9 8 6 5
2 1 1 2 3 4 5 5 5 4 4 4 5 6 6 9 13 11 8 5 4 4 4 3 3 3 2 3 5 6 5 3 5 6 6 7 7 8 9 8 9 8 8
2 2 1 0 2 3 4 5 4 4 4 4 4 6 6 8 13 12 9 4 4 5 4 4 3 2 2 5 6 7 7 5 5 7 8 9 12 15 14 11 10 11 8
4 3 2 2 1 2 3 3 3 3 4 4 4 5 5 6 12 12 9 3 4 3 3 4 4 3 4 6 6 7 8 5 5 7 8 8 9 12 15 11 11 11 7
5 3 3 3 3 2 2 3 3 4 4 5 5 5 6 7 10 12 10 4 3 3 3 3 3 4 5 6 6 5 7 7 7 8 8 7 7 6 5 6 7 9 7
5 4 3 4 3 1 1 2 3 4 4 5 4 5 5 6 8 10 11 8 5 3 2 2 2 4 6 7 6 8 11 9 7 8 8 6 6 5 5 6 9 8 6
5 5 5 4 3 1 1 0 2 3 3 3 3 3 4 5 7 11 11 9 7 3 2 4 5 7 7 6 9 11 9 7 7 7 7 5 4 5 6 6 8 10 12
6 6 5 4 4 3 2 1 1 0 1 2 2 3 4 4 5 6 6 5 6 5 4 5 8 9 8 8 8 7 5 6 6 7 6 4 4 5 6 5 5 5 6
6 6 5 5 5 4 3 2 3 3 3 2 2 2 2 3 5 7 4 3 3 2 3 4 4 5 5 5 5 6 5 5 6 5 6 6 6 6 5 4 4 4 4
5 5 5 5 5 4 3 2 3 4 5 4 4 3 3 4 7 7 6 5 5 4 5 4 4 4 4 4 4 4 4 5 5 5 6 5 5 5 4 3 4 4 5
6 5 4 5 5 5 4 4 4 4 5 6 6 5 5 5 6 6 4 4 5 5 5 4 3 3 3 3 4 4 3 4 4 5 6 5 5 5 5 5 5 4 4
7 7 6 6 6 6 6 5 5 4 3 4 5 7 7 6 5 5 3 4 4 4 3 3 3 3 3 3 3 3 4 4 4 5 5 5 5 5 5 5 5 5 4
7 5 5 5 5 6 5 5 5 5 5 4 3 3 5 4 4 3 1 2 2 1 1 2 2 3 3 3 3 4 4 5 5 5 5 5 5 5 5 5 5 7 5
7 10 8 6 5 5 5 5 5 5 5 5 5 5 3 2 1 1 1 2 3 3 2 2 2 2 3 3 4 4 4 4 5 4 4 5 5 5 6 6 6 6 5
7 7 10 6 6 6 5 6 6 6 6 6 6 7 9 5 5 5 4 4 4 4 4 4 3 3 3 3 3 4 5 5 5 5 5 5 5 4 5 5 6 6 5
8 7 6 7 6 6 6 6 6 6 7 7 6 5 12 6 5 5 6 6 6 5 5 5 4 4 4 4 4 4 5 5 5 5 5 5 5 5 5 5 5 5 5
9 8 7 7 7 8 7 6 6 6 6 7 6 6 7 7 7 7 7 7 6 6 5 5 5 4 4 5 5 5 5 5 5 6 6 6 5 5 5 5 6 5 5
11 10 9 8 7 7 7 7 7 7 7 7 7 7 8 8 8 9 8 7 7 6 6 6 6 8 8 7 7 8 8 7 7 8 8 7 7 6 6 5 6 6 6
11 11 10 9 9 8 8 8 7 7 7 7 7 8 8 8 9 8 8 7 8 8 9 8 8 9 11 12 11 11 11 11 10 9 8 6 7 7 7 6 5 5 5
12 12 11 9 9 9 8 8 8 8 7 7 7 8 8 9 9 9 8 8 8 8 9 8 11 14 14 15 16 16 15 14 13 12 10 6 6 6 6 6 7 6 6
Wind_Direction
347 351 357 355 356 0 5 4 3 8 12 16 17 22 23 18 15 20 22 11 192 195 194 198 201 191 189 189 187 180 181 168 167 162 147 142 150 155 154 160 166 172 182
351 4 1 358 1 6 5 2 5 13 15 19 21 26 25 20 15 18 18 21 22 143 174 185 194 186 185 186 184 184 179 166 155 156 146 141 146 153 148 146 149 162 161
18 19 13 6 6 4 2 3 9 15 17 20 22 23 21 17 14 12 12 20 21 30 95 153 161 156 170 176 175 172 167 159 139 143 142 134 121 132 126 122 120 118 130
39 29 19 6 4 3 2 6 10 13 19 17 17 14 11 10 13 11 12 19 25 34 41 59 107 143 162 166 165 160 154 145 138 136 132 128 120 126 130 132 125 111 110
62 35 13 4 7 8 7 6 9 13 18 10 11 10 5 8 11 11 12 23 29 41 45 41 63 113 148 155 157 157 153 148 144 138 137 133 137 147 148 141 133 120 103
94 50 13 13 11 7 4 5 8 6 3 8 10 7 8 8 7 18 26 29 35 49 54 44 61 75 101 131 151 160 159 157 156 148 144 152 152 148 139 142 138 138 128
111 75 25 15 12 1 1 3 360 356 359 3 3 4 359 353 10 20 31 43 45 55 60 54 57 64 69 87 110 132 150 158 157 153 154 160 154 155 148 149 149 139 124
122 117 28 17 7 358 0 354 345 342 349 354 359 360 0 3 14 21 30 41 49 52 53 57 72 53 62 99 109 106 106 118 153 152 159 161 157 154 152 146 136 113 105
149 182 213 12 1 355 352 342 334 338 345 348 352 360 5 359 11 21 33 34 48 46 40 45 67 70 91 117 118 118 108 91 94 123 134 141 147 145 140 133 134 137 134
195 206 209 208 251 318 322 323 326 336 344 354 6 8 13 4 9 21 30 41 51 45 35 32 38 54 91 121 124 127 125 119 111 100 93 101 120 137 144 149 151 149 139
203 202 210 225 239 265 317 329 341 359 8 10 14 12 14 8 8 17 29 43 53 54 42 22 11 45 79 100 112 117 127 120 107 105 99 94 98 109 116 123 137 150 144
203 209 222 233 246 210 2 349 2 16 19 10 10 8 3 360 5 12 28 42 50 65 46 12 8 49 81 94 106 116 116 108 102 101 100 99 104 104 104 104 105 95 88
207 223 233 235 238 217 189 336 10 18 23 5 7 3 348 350 358 12 22 31 38 49 42 47 58 68 74 82 105 114 112 106 106 104 105 97 92 104 104 97 89 84 73
211 228 230 226 233 234 226 202 167 336 352 350 352 347 341 347 354 357 1 13 23 34 44 57 64 66 69 77 87 91 94 106 114 115 111 98 89 93 101 107 107 99 83
215 228 226 216 214 218 224 226 216 225 210 215 252 282 322 337 326 335 348 357 2 27 60 59 58 63 69 71 74 82 93 103 105 106 111 110 107 105 97 90 99 93 100
211 223 219 210 209 208 213 249 273 246 245 234 229 232 265 280 309 336 357 14 35 79 86 78 75 78 88 97 100 95 99 116 120 120 119 120 123 122 112 96 97 110 116
204 212 213 206 203 205 206 213 246 275 263 263 259 258 263 290 318 341 6 41 59 83 86 95 103 106 105 112 117 120 124 129 127 129 131 132 129 127 125 125 121 118 120
204 208 202 204 205 205 208 211 211 217 241 265 261 252 259 278 307 332 15 66 56 57 87 108 116 122 125 129 132 128 123 127 131 138 140 142 140 138 139 144 147 145 143
199 202 203 205 207 208 209 209 210 213 217 226 240 259 252 267 298 314 54 109 135 129 123 124 130 132 134 138 139 139 141 143 147 148 153 155 152 146 151 158 161 160 149
202 206 197 201 209 212 210 207 212 213 215 212 218 221 203 177 222 245 202 180 177 183 178 166 161 151 143 142 143 143 141 146 150 152 160 162 161 160 163 165 167 168 175
198 205 206 200 208 212 213 213 214 211 212 216 221 214 186 188 206 209 205 202 199 197 194 187 181 172 160 152 151 156 158 163 165 164 163 164 162 163 168 168 172 171 167
194 197 197 203 210 213 218 218 214 213 214 217 222 215 200 198 203 207 210 212 211 206 196 185 187 190 183 175 169 165 168 173 176 171 170 169 168 166 162 164 167 169 170
194 197 201 207 210 218 221 220 215 213 215 213 208 200 195 206 211 213 214 213 207 205 199 190 190 197 201 194 185 174 176 184 186 177 172 172 172 172 168 172 174 170 179
196 199 201 205 207 211 215 219 218 217 215 213 208 205 206 209 212 216 215 211 206 204 198 196 198 201 201 199 197 193 192 194 192 189 181 178 179 178 175 175 179 184 186
199 201 203 204 206 209 214 218 220 220 218 215 212 210 211 211 214 217 214 208 205 207 207 204 206 208 208 206 204 204 202 198 195 192 186 177 183 183 180 180 179 180 182
202 205 206 205 206 208 210 215 218 220 221 220 216 212 209 210 213 215 211 205 206 209 211 209 212 211 212 212 214 213 208 204 200 196 189 180 183 190 186 189 189 186 186
Height
1520 1516 1513 1509 1506 1502 1499 1495 1492 1489 1487 1485 1483 1481 1480 1479 1479 1479 1478 1479 1479 1480 1481 1483 1485 1488 1490 1493 1497 1500 1504 1508 1512 1515 1519 1522 1525 1528 1531 1534 1538 1541 1544
1520 1517 1514 1510 1507 1503 1500 1497 1494 1491 1488 1486 1484 1482 1481 1480 1479 1478 1478 1477 1478 1478 1478 1480 1482 1484 1487 1490 1493 1496 1499 1503 1507 1511 1514 1518 1522 1525 1528 1531 1535 1538 1541
1521 1518 1514 1511 1508 1504 1501 1498 1495 1492 1489 1487 1485 1483 1481 1480 1479 1478 1477 1477 1477 1477 1477 1479 1480 1482 1484 1487 1489 1492 1496 1500 1504 1507 1511 1515 1519 1522 1525 1529 1532 1535 1538
1522 1518 1515 1512 1509 1506 1503 1499 1496 1493 1490 1488 1486 1484 1482 1481 1480 1479 1478 1477 1477 1477 1477 1478 1479 1481 1483 1485 1487 1490 1494 1497 1501 1505 1508 1512 1516 1519 1523 1526 1530 1533 1536
1522 1519 1516 1513 1510 1507 1504 1501 1498 1495 1492 1489 1487 1485 1483 1482 1480 1479 1479 1478 1478 1478 1478 1479 1480 1481 1483 1485 1487 1489 1492 1496 1499 1503 1506 1510 1514 1517 1521 1524 1528 1531 1535
1522 1519 1517 1514 1511 1508 1505 1502 1499 1496 1493 1491 1488 1486 1484 1482 1481 1480 1480 1479 1479 1479 1479 1479 1480 1481 1483 1484 1487 1489 1492 1495 1498 1501 1505 1508 1511 1515 1519 1522 1526 1529 1534
1523 1520 1517 1515 1511 1509 1506 1503 1500 1497 1495 1492 1489 1487 1484 1483 1481 1481 1480 1480 1479 1479 1479 1480 1481 1482 1483 1484 1487 1489 1492 1495 1498 1501 1504 1506 1510 1513 1517 1521 1525 1529 1532
1523 1520 1518 1515 1512 1510 1507 1504 1501 1499 1496 1493 1491 1488 1486 1483 1482 1481 1480 1480 1480 1480 1480 1481 1481 1482 1484 1485 1487 1489 1492 1495 1498 1501 1504 1507 1510 1514 1517 1520 1524 1528 1532
1523 1521 1519 1516 1513 1511 1508 1505 1502 1500 1497 1494 1492 1489 1487 1485 1483 1482 1481 1481 1481 1480 1481 1481 1482 1483 1484 1485 1487 1489 1492 1495 1498 1501 1504 1507 1510 1513 1516 1520 1523 1527 1531
1523 1521 1519 1517 1514 1512 1509 1506 1503 1501 1498 1496 1493 1490 1488 1486 1484 1483 1482 1481 1481 1481 1481 1482 1483 1483 1485 1486 1488 1490 1493 1495 1498 1501 1504 1507 1510 1513 1517 1520 1523 1526 1529
1523 1521 1520 1517 1515 1513 1510 1507 1505 1502 1499 1497 1494 1491 1489 1487 1485 1484 1483 1483 1482 1482 1482 1483 1483 1484 1485 1487 1489 1491 1494 1497 1499 1502 1505 1508 1511 1514 1517 1520 1524 1527 1529
1523 1522 1520 1518 1516 1514 1511 1509 1506 1503 1500 1498 1495 1493 1490 1488 1486 1485 1484 1484 1483 1483 1484 1484 1485 1486 1487 1489 1491 1493 1496 1499 1501 1504 1506 1509 1512 1515 1518 1521 1524 1527 1531
1523 1522 1520 1519 1517 1515 1512 1510 1507 1504 1501 1499 1496 1494 1492 1490 1488 1487 1486 1486 1486 1485 1486 1486 1486 1488 1489 1491 1494 1496 1498 1501 1503 1506 1508 1511 1514 1516 1519 1522 1524 1527 1530
1522 1521 1520 1518 1517 1515 1513 1511 1508 1505 1503 1500 1497 1495 1493 1491 1490 1489 1488 1488 1488 1488 1488 1488 1489 1490 1492 1494 1496 1499 1502 1504 1507 1509 1511 1514 1516 1518 1521 1523 1525 1528 1530
1520 1519 1518 1517 1516 1515 1513 1511 1509 1507 1504 1502 1499 1497 1495 1493 1492 1491 1490 1490 1490 1490 1491 1491 1492 1494 1495 1497 1499 1502 1505 1507 1509 1512 1514 1516 1518 1520 1522 1524 1526 1528 1530
1518 1517 1516 1515 1515 1514 1513 1511 1510 1507 1505 1503 1501 1498 1497 1495 1494 1493 1493 1493 1493 1493 1493 1494 1495 1497 1498 1500 1502 1505 1507 1509 1512 1514 1516 1517 1519 1521 1523 1525 1527 1529 1530
1515 1514 1514 1513 1513 1512 1511 1510 1509 1508 1506 1504 1502 1500 1498 1496 1496 1495 1495 1495 1495 1495 1496 1497 1498 1499 1501 1503 1505 1507 1509 1511 1513 1515 1517 1519 1520 1522 1524 1525 1527 1529 1530
1512 1511 1511 1510 1510 1510 1509 1509 1508 1507 1506 1504 1502 1501 1499 1498 1497 1496 1496 1496 1496 1497 1498 1499 1500 1501 1503 1504 1506 1508 1510 1512 1514 1516 1518 1519 1521 1522 1524 1525 1527 1528 1530
1508 1508 1507 1507 1507 1507 1507 1507 1506 1505 1504 1503 1502 1501 1500 1498 1498 1497 1497 1497 1497 1498 1498 1499 1501 1502 1503 1505 1507 1508 1510 1512 1514 1516 1518 1519 1521 1522 1524 1525 1526 1528 1529
1504 1504 1504 1503 1504 1504 1503 1503 1503 1503 1502 1502 1501 1500 1499 1498 1497 1497 1497 1497 1497 1498 1498 1499 1500 1502 1503 1505 1506 1508 1510 1512 1513 1515 1517 1518 1520 1521 1522 1524 1525 1526 1527
1499 1499 1499 1499 1499 1499 1499 1499 1499 1499 1499 1499 1499 1499 1498 1497 1497 1496 1496 1496 1496 1497 1498 1499 1500 1501 1502 1504 1505 1507 1509 1510 1512 1513 1515 1516 1518 1519 1521 1522 1523 1524 1525
1493 1494 1494 1493 1494 1494 1494 1495 1495 1495 1495 1495 1496 1496 1495 1495 1495 1495 1494 1494 1495 1495 1496 1497 1498 1499 1500 1502 1503 1505 1506 1508 1509 1511 1512 1514 1515 1516 1518 1519 1520 1521 1522
1487 1487 1488 1488 1488 1489 1489 1490 1490 1490 1491 1491 1492 1492 1492 1492 1492 1492 1492 1492 1492 1493 1494 1494 1495 1497 1498 1499 1501 1502 1504 1505 1507 1508 1509 1511 1512 1513 1514 1515 1516 1517 1518
1479 1480 1481 1481 1482 1482 1483 1484 1484 1485 1486 1486 1487 1487 1488 1488 1489 1489 1489 1490 1490 1490 1491 1491 1492 1493 1494 1496 1497 1498 1500 1501 1503 1504 1506 1507 1508 1509 1510 1511 1512 1513 1514
1470 1471 1472 1473 1474 1475 1476 1477 1478 1479 1480 1481 1481 1482 1483 1484 1484 1485 1486 1486 1486 1487 1487 1488 1489 1489 1490 1491 1493 1494 1495 1497 1498 1499 1501 1502 1503 1504 1505 1507 1508 1509 1510
1461 1463 1464 1465 1466 1467 1468 1469 1471 1472 1473 1474 1475 1476 1477 1478 1479 1480 1481 1482 1482 1483 1483 1484 1485 1485 1486 1487 1488 1489 1490 1491 1493 1494 1495 1497 1498 1499 1500 1501 1502 1503 1504